Weather in Khomutovskaya

Russia / Rostov Oblast     47°02′38″N   40°03′53″E
temp.,
°C
wind,
m/s
gust,
m/s
humid.,
%
clouds,
%
prec.,
mm/h
press.,
hPa
HPBL,
m
6 august, fri
fri600:00+25ese4846100 0.1 1011126
03:00+24ese4104517 0.1 1011191
06:00+25ese6134095 0.1 1011398
09:00+28ese71231100 0.1 1010678
12:00+35ese910228 0.0 10092038
15:00+37ese9102094 0.0 10062887
18:00+35e81023100 0.0 10051548
21:00+31e7152877 0.0 1005517
7 august, sat
sat700:00+30e91824100 0.0 1005668
03:00+28ese817285 0.0 1005586
06:00+27ese81736100 0.0 1005674
09:00+29ese81237100 0.6 1006870
12:00+32ese5832100 1.1 10061289
15:00+37e5619100 1.4 10042230
18:00+36ese352088 0.0 1003699
21:00+28e3440100 0.3 100559
8 august, sun
sun800:00+26e3345100 0.3 100550
03:00+24wsw4668100 1.3 100696
06:00+23ese3678100 0.9 1008129
09:00+24e3472100 1.1 1010200
12:00+29ese324177 0.0 10091224
15:00+32ene223523 0.0 10091821
18:00+30ene3536100 0.1 1010304
21:00+23nw3378100 0.2 1010111
9 august, mon
mon900:00+22wsw478099 0.0 1011194
03:00+21wsw358384 0.0 1011108
06:00+22sw358289 0.0 1011123
09:00+26wsw4559100 0.0 1012416
12:00+27ssw6857100 0.0 1013824
15:00+31ssw574395 0.0 10121400
18:00+30sw4544100 0.0 10111123
21:00+22ssw2479100 5.8 1013117
10 august, tue
tue1000:00+21ssw25920 0.0 1012114
03:00+21s238825 0.0 101241
06:00+21ssw348211 0.0 101286
09:00+27ssw34566 0.0 1012575
12:00+31s66395 0.0 10112047
15:00+32s563668 0.0 10092047
18:00+30wnw453939 0.0 1009620
21:00+25w36520 0.0 1010106